{"data":{"norad_id":56707,"intl_designator":"2023-067V","name":"STARLINK-30070","alt_names":[],"object_type":"PAYLOAD","status":"ACTIVE","operator":null,"country":"US","launch_date":"2023-05-19","launch_site_code":"AFETR","launch_vehicle":null,"mission":null,"orbit_class":"UNKNOWN","rcs_meters":null,"size_class":null,"mass_kg":null,"dimensions":null,"purposes":["comms"],"wikipedia_slug":null,"has_3d_model":false,"image_url":null,"decayed_at":null,"tle_current":{"epoch":"2026-09-20T10:32:13.896672Z","epoch_age_seconds":120163,"freshness":"FRESH","line1":"1 56707U 23067V   26263.43904973  .00000966  00000+0  44629-4 0  9990","line2":"2 56707  43.0027 251.2882 0001526 263.4389  96.6289 15.27579978185486","mean_motion":15.27579978,"eccentricity":0.0001526,"inclination_deg":43.0027,"raan_deg":251.2882,"arg_perigee_deg":263.4389,"mean_anomaly_deg":96.6289,"bstar":4.4629e-5,"rev_number":18548,"period_min":94.266750071269,"perigee_km":482.00214490726,"apogee_km":484.09617892388,"semimajor_km":6861.1861619156,"source":"CELESTRAK","updated_at":"2026-09-21T09:00:33.484478Z"}}}